{"data":{"norad_id":65245,"epoch":"2026-09-20T09:20:24.830592Z","epoch_age_seconds":127102,"freshness":"FRESH","line1":"1 65245U 25179L   26263.38917628  .00013929  00000+0  43298-3 0  9991","line2":"2 65245  97.2835 302.6788 0000581  83.9221 276.2088 15.33446102 61268","mean_motion":15.33446102,"eccentricity":5.81e-5,"inclination_deg":97.2835,"raan_deg":302.6788,"arg_perigee_deg":83.9221,"mean_anomaly_deg":276.2088,"bstar":0.00043298,"rev_number":6126,"period_min":93.906137171817,"perigee_km":465.14227807578,"apogee_km":465.93751333106,"semimajor_km":6843.6768957034,"source":"CELESTRAK","updated_at":"2026-09-21T09:00:35.559757Z"}}